Time,TemperatureF,DewpointF,PressureIn,WindDirection,WindDirectionDegrees,WindSpeedMPH,WindSpeedGustMPH,Humidity,HourlyPrecipIn,Conditions,Clouds,dailyrainin,SoftwareType,DateUTC
2013-03-02 00:01:00,37.0,27.4,29.79,WNW,284,3.0,3.0,68,0.00,,---,0.00,VWS V14.00,2013-03-02 05:01:00,
2013-03-02 00:02:00,36.9,27.3,29.79,WNW,284,1.0,1.0,68,0.00,,---,0.00,VWS V14.00,2013-03-02 05:02:00,
2013-03-02 00:04:00,36.9,27.3,29.79,WNW,284,2.0,2.0,68,0.00,,---,0.00,VWS V14.00,2013-03-02 05:04:00,
2013-03-02 00:10:00,36.8,27.6,29.79,WNW,285,0.0,1.0,69,0.00,,---,0.00,VWS V14.00,2013-03-02 05:10:00,
2013-03-02 00:15:00,36.6,27.4,29.79,NW,317,2.0,4.0,69,0.00,,---,0.00,VWS V14.00,2013-03-02 05:15:00,
2013-03-02 00:20:00,36.5,27.3,29.79,NW,305,3.0,3.0,69,0.00,,---,0.00,VWS V14.00,2013-03-02 05:20:00,
2013-03-02 00:25:00,36.5,27.3,29.79,NW,316,2.0,2.0,69,0.00,,---,0.00,VWS V14.00,2013-03-02 05:25:00,
2013-03-02 00:30:00,36.4,27.2,29.79,NNW,335,2.0,3.0,69,0.00,,---,0.00,VWS V14.00,2013-03-02 05:30:00,
2013-03-02 00:35:00,36.3,27.1,29.79,NW,321,2.0,3.0,69,0.00,,---,0.00,VWS V14.00,2013-03-02 05:35:00,
2013-03-02 00:40:00,36.2,27.0,29.79,WNW,284,2.0,3.0,69,0.00,,---,0.00,VWS V14.00,2013-03-02 05:40:00,
2013-03-02 00:45:00,36.2,27.4,29.79,WNW,288,2.0,2.0,70,0.00,,---,0.00,VWS V14.00,2013-03-02 05:45:00,
2013-03-02 00:50:00,36.1,27.3,29.79,WNW,296,1.0,2.0,70,0.00,,---,0.00,VWS V14.00,2013-03-02 05:50:00,
2013-03-02 00:55:00,36.0,27.2,29.79,NNW,342,1.0,3.0,70,0.00,,---,0.00,VWS V14.00,2013-03-02 05:55:00,
2013-03-02 01:01:00,36.0,27.2,29.79,North,351,2.0,6.0,70,0.00,,---,0.00,VWS V14.00,2013-03-02 06:01:00,
2013-03-02 01:06:00,35.9,27.1,29.79,NNW,333,0.0,1.0,70,0.00,,---,0.00,VWS V14.00,2013-03-02 06:06:00,
2013-03-02 01:11:00,35.9,27.1,29.79,NW,304,2.0,2.0,70,0.00,,---,0.00,VWS V14.00,2013-03-02 06:11:00,
2013-03-02 01:16:00,35.9,27.1,29.79,NW,304,5.0,6.0,70,0.00,,---,0.00,VWS V14.00,2013-03-02 06:16:00,
2013-03-02 01:21:00,35.8,27.0,29.79,NW,315,0.0,2.0,70,0.00,,---,0.00,VWS V14.00,2013-03-02 06:21:00,
2013-03-02 01:26:00,35.8,26.6,29.79,NW,323,3.0,3.0,69,0.00,,---,0.00,VWS V14.00,2013-03-02 06:26:00,
2013-03-02 01:31:00,35.7,26.5,29.79,NW,307,1.0,2.0,69,0.00,,---,0.00,VWS V14.00,2013-03-02 06:31:00,
2013-03-02 01:36:00,35.7,26.5,29.79,NW,309,3.0,4.0,69,0.00,,---,0.00,VWS V14.00,2013-03-02 06:36:00,
2013-03-02 01:41:00,35.6,26.5,29.79,WNW,291,4.0,5.0,69,0.00,,---,0.00,VWS V14.00,2013-03-02 06:41:00,
2013-03-02 01:46:00,35.6,26.5,29.79,NW,313,3.0,3.0,69,0.00,,---,0.00,VWS V14.00,2013-03-02 06:46:00,
2013-03-02 01:51:00,35.5,26.4,29.79,WNW,286,5.0,6.0,69,0.00,,---,0.00,VWS V14.00,2013-03-02 06:51:00,
2013-03-02 01:56:00,35.4,26.6,29.79,NW,315,5.0,6.0,70,0.00,,---,0.00,VWS V14.00,2013-03-02 06:56:00,
2013-03-02 02:01:00,35.3,26.2,29.79,NNW,341,3.0,5.0,69,0.00,,---,0.00,VWS V14.00,2013-03-02 07:01:00,
2013-03-02 02:07:00,35.3,26.2,29.79,NW,323,3.0,3.0,69,0.00,,---,0.00,VWS V14.00,2013-03-02 07:07:00,
2013-03-02 02:12:00,35.2,26.1,29.79,NW,314,4.0,5.0,69,0.00,,---,0.00,VWS V14.00,2013-03-02 07:12:00,
2013-03-02 02:17:00,35.1,26.0,29.79,NNW,331,4.0,5.0,69,0.00,,---,0.00,VWS V14.00,2013-03-02 07:17:00,
2013-03-02 02:22:00,35.1,26.3,29.79,NW,315,1.0,2.0,70,0.00,,---,0.00,VWS V14.00,2013-03-02 07:22:00,
2013-03-02 02:27:00,35.0,25.9,29.79,NW,311,1.0,3.0,69,0.00,,---,0.00,VWS V14.00,2013-03-02 07:27:00,
2013-03-02 02:32:00,35.0,25.9,29.79,NW,309,5.0,6.0,69,0.00,,---,0.00,VWS V14.00,2013-03-02 07:32:00,
2013-03-02 02:37:00,35.0,26.2,29.79,NNW,342,3.0,3.0,70,0.00,,---,0.00,VWS V14.00,2013-03-02 07:37:00,
2013-03-02 02:42:00,34.9,26.1,29.79,NW,312,1.0,2.0,70,0.00,,---,0.00,VWS V14.00,2013-03-02 07:42:00,
2013-03-02 02:47:00,34.8,26.4,29.79,NW,311,4.0,5.0,71,0.00,,---,0.00,VWS V14.00,2013-03-02 07:47:00,
2013-03-02 02:52:00,34.7,26.3,29.79,NNW,331,2.0,4.0,71,0.00,,---,0.00,VWS V14.00,2013-03-02 07:52:00,
2013-03-02 02:57:00,34.6,26.5,29.79,North,355,4.0,4.0,72,0.00,,---,0.00,VWS V14.00,2013-03-02 07:57:00,
2013-03-02 03:03:00,34.6,26.5,29.79,WNW,286,3.0,4.0,72,0.00,,---,0.00,VWS V14.00,2013-03-02 08:03:00,
2013-03-02 03:08:00,34.5,26.4,29.79,NW,324,2.0,2.0,72,0.00,,---,0.00,VWS V14.00,2013-03-02 08:08:00,
2013-03-02 03:13:00,34.4,26.3,29.79,NW,314,1.0,1.0,72,0.00,,---,0.00,VWS V14.00,2013-03-02 08:13:00,
2013-03-02 03:18:00,34.3,26.2,29.79,WNW,290,3.0,5.0,72,0.00,,---,0.00,VWS V14.00,2013-03-02 08:18:00,
2013-03-02 03:23:00,34.3,26.2,29.79,WNW,289,4.0,5.0,72,0.00,,---,0.00,VWS V14.00,2013-03-02 08:23:00,
2013-03-02 03:28:00,34.3,26.2,29.80,NW,310,1.0,3.0,72,0.00,,---,0.00,VWS V14.00,2013-03-02 08:28:00,
2013-03-02 03:33:00,34.2,26.1,29.80,NW,313,2.0,2.0,72,0.00,,---,0.00,VWS V14.00,2013-03-02 08:33:00,
2013-03-02 03:38:00,34.2,26.1,29.79,WNW,303,3.0,5.0,72,0.00,,---,0.00,VWS V14.00,2013-03-02 08:38:00,
2013-03-02 03:43:00,34.2,25.8,29.80,WNW,290,4.0,4.0,71,0.00,,---,0.00,VWS V14.00,2013-03-02 08:43:00,
2013-03-02 03:48:00,34.2,25.8,29.80,WNW,286,3.0,5.0,71,0.00,,---,0.00,VWS V14.00,2013-03-02 08:48:00,
2013-03-02 03:53:00,34.1,25.7,29.79,NW,317,3.0,4.0,71,0.00,,---,0.00,VWS V14.00,2013-03-02 08:53:00,
2013-03-02 03:59:00,34.1,25.4,29.79,WNW,303,2.0,3.0,70,0.00,,---,0.00,VWS V14.00,2013-03-02 08:59:00,
2013-03-02 04:04:00,34.1,25.4,29.80,North,355,2.0,3.0,70,0.00,,---,0.00,VWS V14.00,2013-03-02 09:04:00,
2013-03-02 04:09:00,34.0,25.3,29.80,NW,318,0.0,2.0,70,0.00,,---,0.00,VWS V14.00,2013-03-02 09:09:00,
2013-03-02 04:14:00,33.9,25.2,29.79,NW,322,4.0,7.0,70,0.00,,---,0.00,VWS V14.00,2013-03-02 09:14:00,
2013-03-02 04:19:00,33.9,25.2,29.79,NW,311,2.0,2.0,70,0.00,,---,0.00,VWS V14.00,2013-03-02 09:19:00,
2013-03-02 04:24:00,33.9,25.2,29.79,NW,322,5.0,5.0,70,0.00,,---,0.00,VWS V14.00,2013-03-02 09:24:00,
2013-03-02 04:29:00,33.9,25.2,29.79,NW,313,0.0,1.0,70,0.00,,---,0.00,VWS V14.00,2013-03-02 09:29:00,
2013-03-02 04:34:00,33.8,25.1,29.79,NNW,342,0.0,1.0,70,0.00,,---,0.00,VWS V14.00,2013-03-02 09:34:00,
2013-03-02 04:39:00,33.8,25.1,29.79,NNW,342,2.0,2.0,70,0.00,,---,0.00,VWS V14.00,2013-03-02 09:39:00,
2013-03-02 04:44:00,33.8,25.1,29.79,NW,315,3.0,3.0,70,0.00,,---,0.00,VWS V14.00,2013-03-02 09:44:00,
2013-03-02 04:49:00,33.8,25.1,29.79,NNW,327,3.0,5.0,70,0.00,,---,0.00,VWS V14.00,2013-03-02 09:49:00,
2013-03-02 04:54:00,33.8,25.1,29.79,NNW,346,0.0,2.0,70,0.00,,---,0.00,VWS V14.00,2013-03-02 09:54:00,
2013-03-02 05:00:00,33.7,25.0,29.79,NW,304,3.0,3.0,70,0.00,,---,0.00,VWS V14.00,2013-03-02 10:00:00,
2013-03-02 05:05:00,33.7,25.0,29.79,NW,315,4.0,5.0,70,0.00,,---,0.00,VWS V14.00,2013-03-02 10:05:00,
2013-03-02 05:10:00,33.7,25.0,29.79,NW,320,2.0,2.0,70,0.00,,---,0.00,VWS V14.00,2013-03-02 10:10:00,
2013-03-02 05:15:00,33.7,25.0,29.79,NW,304,2.0,3.0,70,0.00,,---,0.00,VWS V14.00,2013-03-02 10:15:00,
2013-03-02 05:21:00,33.7,25.0,29.79,NNW,336,2.0,2.0,70,0.00,,---,0.00,VWS V14.00,2013-03-02 10:21:00,
2013-03-02 05:26:00,33.6,25.2,29.80,NW,317,2.0,2.0,71,0.00,,---,0.00,VWS V14.00,2013-03-02 10:26:00,
2013-03-02 05:31:00,33.5,25.1,29.80,WNW,293,3.0,4.0,71,0.00,,---,0.00,VWS V14.00,2013-03-02 10:31:00,
2013-03-02 05:37:00,33.4,25.0,29.80,WNW,302,1.0,2.0,71,0.00,,---,0.00,VWS V14.00,2013-03-02 10:37:00,
2013-03-02 05:43:00,33.4,25.4,29.80,West,280,0.0,1.0,72,0.00,,---,0.00,VWS V14.00,2013-03-02 10:43:00,
2013-03-02 05:48:00,33.2,25.2,29.80,West,281,2.0,2.0,72,0.00,,---,0.00,VWS V14.00,2013-03-02 10:48:00,
2013-03-02 05:53:00,33.1,25.1,29.80,WNW,294,0.0,1.0,72,0.00,,---,0.00,VWS V14.00,2013-03-02 10:53:00,
2013-03-02 05:58:00,32.8,25.1,29.80,NW,312,0.0,0.0,73,0.00,,---,0.00,VWS V14.00,2013-03-02 10:58:00,
2013-03-02 06:03:00,32.7,25.0,29.80,WNW,288,1.0,1.0,73,0.00,,---,0.00,VWS V14.00,2013-03-02 11:03:00,
2013-03-02 06:08:00,32.5,24.8,29.80,NW,305,0.0,2.0,73,0.00,,---,0.00,VWS V14.00,2013-03-02 11:08:00,
2013-03-02 06:13:00,32.4,25.0,29.80,NW,305,1.0,2.0,74,0.00,,---,0.00,VWS V14.00,2013-03-02 11:13:00,
2013-03-02 06:19:00,32.2,24.9,29.80,NW,305,1.0,2.0,74,0.00,,---,0.00,VWS V14.00,2013-03-02 11:19:00,
2013-03-02 06:24:00,32.1,24.8,29.80,WNW,289,2.0,2.0,74,0.00,,---,0.00,VWS V14.00,2013-03-02 11:24:00,
2013-03-02 06:29:00,31.9,24.6,29.80,WNW,294,0.0,1.0,74,0.00,,---,0.00,VWS V14.00,2013-03-02 11:29:00,
2013-03-02 06:34:00,31.8,24.8,29.80,WNW,294,1.0,1.0,75,0.00,,---,0.00,VWS V14.00,2013-03-02 11:34:00,
2013-03-02 06:39:00,31.7,24.7,29.81,NW,307,2.0,3.0,75,0.00,,---,0.00,VWS V14.00,2013-03-02 11:39:00,
2013-03-02 06:44:00,31.5,24.2,29.81,NW,305,2.0,2.0,74,0.00,,---,0.00,VWS V14.00,2013-03-02 11:44:00,
2013-03-02 06:49:00,31.5,24.5,29.81,NW,320,2.0,3.0,75,0.00,,---,0.00,VWS V14.00,2013-03-02 11:49:00,
2013-03-02 06:54:00,31.4,24.4,29.80,WNW,301,2.0,2.0,75,0.00,,---,0.00,VWS V14.00,2013-03-02 11:54:00,
2013-03-02 06:59:00,31.5,24.5,29.81,WNW,302,3.0,3.0,75,0.00,,---,0.00,VWS V14.00,2013-03-02 11:59:00,
2013-03-02 07:04:00,31.5,24.2,29.81,NW,322,3.0,3.0,74,0.00,,---,0.00,VWS V14.00,2013-03-02 12:04:00,
2013-03-02 07:09:00,31.6,24.3,29.80,WNW,292,4.0,4.0,74,0.00,,---,0.00,VWS V14.00,2013-03-02 12:09:00,
2013-03-02 07:14:00,31.7,24.4,29.81,NW,305,3.0,3.0,74,0.00,,---,0.00,VWS V14.00,2013-03-02 12:14:00,
2013-03-02 07:19:00,31.9,24.2,29.81,WNW,294,2.0,2.0,73,0.00,,---,0.00,VWS V14.00,2013-03-02 12:19:00,
2013-03-02 07:24:00,32.0,24.3,29.81,NW,322,0.0,3.0,73,0.00,,---,0.00,VWS V14.00,2013-03-02 12:24:00,
2013-03-02 07:29:00,32.1,24.1,29.81,WNW,286,3.0,5.0,72,0.00,,---,0.00,VWS V14.00,2013-03-02 12:29:00,
2013-03-02 07:34:00,32.2,24.2,29.81,NNW,327,1.0,1.0,72,0.00,,---,0.00,VWS V14.00,2013-03-02 12:34:00,
2013-03-02 07:39:00,32.3,24.3,29.80,WNW,291,2.0,2.0,72,0.00,,---,0.00,VWS V14.00,2013-03-02 12:39:00,
2013-03-02 07:44:00,32.5,24.2,29.80,NNW,331,2.0,3.0,71,0.00,,---,0.00,VWS V14.00,2013-03-02 12:44:00,
2013-03-02 07:50:00,32.7,24.4,29.80,WNW,292,4.0,4.0,71,0.00,,---,0.00,VWS V14.00,2013-03-02 12:50:00,
2013-03-02 07:55:00,32.8,24.1,29.80,WNW,292,4.0,4.0,70,0.00,,---,0.00,VWS V14.00,2013-03-02 12:55:00,
2013-03-02 08:00:00,33.0,24.3,29.80,West,279,4.0,8.0,70,0.00,,---,0.00,VWS V14.00,2013-03-02 13:00:00,
2013-03-02 08:05:00,33.1,24.4,29.80,NW,325,4.0,5.0,70,0.00,,---,0.00,VWS V14.00,2013-03-02 13:05:00,
2013-03-02 08:10:00,33.2,24.1,29.80,NW,307,4.0,5.0,69,0.00,,---,0.00,VWS V14.00,2013-03-02 13:10:00,
2013-03-02 08:15:00,33.4,24.3,29.80,NW,310,4.0,6.0,69,0.00,,---,0.00,VWS V14.00,2013-03-02 13:15:00,
2013-03-02 08:20:00,33.5,24.1,29.80,NW,320,5.0,6.0,68,0.00,,---,0.00,VWS V14.00,2013-03-02 13:20:00,
2013-03-02 08:25:00,33.8,24.4,29.80,NNW,335,3.0,6.0,68,0.00,,---,0.00,VWS V14.00,2013-03-02 13:25:00,
2013-03-02 08:30:00,33.9,24.1,29.80,WNW,288,5.0,7.0,67,0.00,,---,0.00,VWS V14.00,2013-03-02 13:30:00,
2013-03-02 08:35:00,34.1,24.3,29.80,NW,315,6.0,10.0,67,0.00,,---,0.00,VWS V14.00,2013-03-02 13:35:00,
2013-03-02 08:40:00,34.1,24.7,29.80,West,276,4.0,5.0,68,0.00,,---,0.00,VWS V14.00,2013-03-02 13:40:00,
2013-03-02 08:45:00,34.6,24.8,29.80,West,281,4.0,7.0,67,0.00,,---,0.00,VWS V14.00,2013-03-02 13:45:00,
2013-03-02 08:50:00,34.6,24.4,29.80,NNW,340,6.0,6.0,66,0.00,,---,0.00,VWS V14.00,2013-03-02 13:50:00,
2013-03-02 08:55:00,34.8,25.0,29.80,WNW,290,4.0,7.0,67,0.00,,---,0.00,VWS V14.00,2013-03-02 13:55:00,
2013-03-02 09:00:00,35.0,24.8,29.79,NW,308,3.0,3.0,66,0.00,,---,0.00,VWS V14.00,2013-03-02 14:00:00,
2013-03-02 09:05:00,35.2,24.6,29.79,WNW,296,3.0,4.0,65,0.00,,---,0.00,VWS V14.00,2013-03-02 14:05:00,
2013-03-02 09:10:00,35.4,25.2,29.80,NNW,339,3.0,3.0,66,0.00,,---,0.00,VWS V14.00,2013-03-02 14:10:00,
2013-03-02 09:15:00,35.6,24.6,29.80,WNW,293,3.0,3.0,64,0.00,,---,0.00,VWS V14.00,2013-03-02 14:15:00,
2013-03-02 09:21:00,35.8,25.2,29.80,NNW,338,3.0,7.0,65,0.00,,---,0.00,VWS V14.00,2013-03-02 14:21:00,
2013-03-02 09:26:00,36.3,25.3,29.79,North,5,4.0,10.0,64,0.00,,---,0.00,VWS V14.00,2013-03-02 14:26:00,
2013-03-02 09:31:00,36.7,25.7,29.79,WNW,288,3.0,5.0,64,0.00,,---,0.00,VWS V14.00,2013-03-02 14:31:00,
2013-03-02 09:36:00,36.4,25.0,29.79,West,279,5.0,6.0,63,0.00,,---,0.00,VWS V14.00,2013-03-02 14:36:00,
2013-03-02 09:41:00,36.4,25.0,29.79,NNE,22,4.0,5.0,63,0.00,,---,0.00,VWS V14.00,2013-03-02 14:41:00,
2013-03-02 09:46:00,36.7,25.3,29.79,WNW,300,2.0,3.0,63,0.00,,---,0.00,VWS V14.00,2013-03-02 14:46:00,
2013-03-02 09:51:00,37.2,25.8,29.79,WNW,296,2.0,2.0,63,0.00,,---,0.00,VWS V14.00,2013-03-02 14:51:00,
2013-03-02 09:56:00,37.4,25.6,29.79,WNW,295,3.0,5.0,62,0.00,,---,0.00,VWS V14.00,2013-03-02 14:56:00,
2013-03-02 10:01:00,37.6,26.2,29.78,NNW,327,3.0,4.0,63,0.00,,---,0.00,VWS V14.00,2013-03-02 15:01:00,
2013-03-02 10:06:00,37.8,25.6,29.78,NNW,340,1.0,5.0,61,0.00,,---,0.00,VWS V14.00,2013-03-02 15:06:00,
2013-03-02 10:11:00,37.7,25.1,29.78,NW,306,2.0,4.0,60,0.00,,---,0.00,VWS V14.00,2013-03-02 15:11:00,
2013-03-02 10:16:00,37.6,25.4,29.78,NW,311,3.0,3.0,61,0.00,,---,0.00,VWS V14.00,2013-03-02 15:16:00,
2013-03-02 10:21:00,37.9,26.1,29.78,WNW,301,4.0,5.0,62,0.00,,---,0.00,VWS V14.00,2013-03-02 15:21:00,
2013-03-02 10:26:00,37.8,25.6,29.79,North,10,6.0,6.0,61,0.00,,---,0.00,VWS V14.00,2013-03-02 15:26:00,
2013-03-02 10:31:00,37.7,25.5,29.78,WNW,290,2.0,3.0,61,0.00,,---,0.00,VWS V14.00,2013-03-02 15:31:00,
2013-03-02 10:36:00,37.6,25.8,29.78,WNW,294,4.0,6.0,62,0.00,,---,0.00,VWS V14.00,2013-03-02 15:36:00,
2013-03-02 10:41:00,38.0,26.1,29.78,NNW,334,1.0,2.0,62,0.00,,---,0.00,VWS V14.00,2013-03-02 15:41:00,
2013-03-02 10:47:00,38.0,25.4,29.78,WNW,288,4.0,4.0,60,0.00,,---,0.00,VWS V14.00,2013-03-02 15:47:00,
2013-03-02 10:52:00,38.0,25.8,29.78,NW,323,3.0,4.0,61,0.00,,---,0.00,VWS V14.00,2013-03-02 15:52:00,
2013-03-02 10:57:00,38.5,25.8,29.78,West,277,2.0,3.0,60,0.00,,---,0.00,VWS V14.00,2013-03-02 15:57:00,
2013-03-02 11:02:00,38.2,25.1,29.78,WNW,288,3.0,5.0,59,0.00,,---,0.00,VWS V14.00,2013-03-02 16:02:00,
2013-03-02 11:07:00,38.2,26.0,29.78,NNW,334,3.0,5.0,61,0.00,,---,0.00,VWS V14.00,2013-03-02 16:07:00,
2013-03-02 11:12:00,38.6,25.9,29.78,NW,319,2.0,2.0,60,0.00,,---,0.00,VWS V14.00,2013-03-02 16:12:00,
2013-03-02 11:17:00,38.4,25.7,29.78,North,360,2.0,3.0,60,0.00,,---,0.00,VWS V14.00,2013-03-02 16:17:00,
2013-03-02 11:22:00,38.5,25.8,29.78,WNW,301,2.0,3.0,60,0.00,,---,0.00,VWS V14.00,2013-03-02 16:22:00,
2013-03-02 11:27:00,38.6,26.3,29.78,WNW,298,1.0,1.0,61,0.00,,---,0.00,VWS V14.00,2013-03-02 16:27:00,
2013-03-02 11:32:00,38.7,26.0,29.78,NNW,327,4.0,5.0,60,0.00,,---,0.00,VWS V14.00,2013-03-02 16:32:00,
2013-03-02 11:37:00,38.8,25.7,29.78,WNW,296,2.0,4.0,59,0.00,,---,0.00,VWS V14.00,2013-03-02 16:37:00,
2013-03-02 11:42:00,38.6,25.9,29.78,WNW,300,2.0,3.0,60,0.00,,---,0.00,VWS V14.00,2013-03-02 16:42:00,
2013-03-02 11:47:00,38.6,25.9,29.78,WNW,295,2.0,3.0,60,0.00,,---,0.00,VWS V14.00,2013-03-02 16:47:00,
2013-03-02 11:52:00,38.6,25.5,29.77,NW,324,3.0,4.0,59,0.00,,---,0.00,VWS V14.00,2013-03-02 16:52:00,
2013-03-02 11:57:00,38.8,26.1,29.77,West,268,4.0,4.0,60,0.00,,---,0.00,VWS V14.00,2013-03-02 16:57:00,
2013-03-02 12:02:00,38.9,25.8,29.77,WNW,302,5.0,6.0,59,0.00,,---,0.00,VWS V14.00,2013-03-02 17:02:00,
2013-03-02 12:08:00,38.6,25.9,29.77,NW,306,4.0,5.0,60,0.00,,---,0.00,VWS V14.00,2013-03-02 17:08:00,
2013-03-02 12:13:00,38.7,26.0,29.77,WNW,286,1.0,1.0,60,0.00,,---,0.00,VWS V14.00,2013-03-02 17:13:00,
2013-03-02 12:18:00,38.9,26.2,29.76,WNW,301,3.0,5.0,60,0.00,,---,0.00,VWS V14.00,2013-03-02 17:18:00,
2013-03-02 12:23:00,39.0,25.9,29.76,NW,313,2.0,3.0,59,0.00,,---,0.00,VWS V14.00,2013-03-02 17:23:00,
2013-03-02 12:28:00,39.1,26.0,29.76,WNW,289,2.0,3.0,59,0.00,,---,0.00,VWS V14.00,2013-03-02 17:28:00,
2013-03-02 12:33:00,39.1,25.6,29.76,NW,305,5.0,6.0,58,0.00,,---,0.00,VWS V14.00,2013-03-02 17:33:00,
2013-03-02 12:38:00,39.1,26.0,29.76,NW,310,5.0,6.0,59,0.00,,---,0.00,VWS V14.00,2013-03-02 17:38:00,
2013-03-02 12:43:00,39.2,25.7,29.75,NW,317,4.0,4.0,58,0.00,,---,0.00,VWS V14.00,2013-03-02 17:43:00,
2013-03-02 12:48:00,39.5,26.4,29.75,NW,325,3.0,4.0,59,0.00,,---,0.00,VWS V14.00,2013-03-02 17:48:00,
2013-03-02 12:53:00,39.4,26.3,29.75,NW,306,2.0,2.0,59,0.00,,---,0.00,VWS V14.00,2013-03-02 17:53:00,
2013-03-02 12:58:00,39.4,25.9,29.75,NW,304,4.0,4.0,58,0.00,,---,0.00,VWS V14.00,2013-03-02 17:58:00,
2013-03-02 13:03:00,39.5,26.8,29.75,NNW,331,3.0,5.0,60,0.00,,---,0.00,VWS V14.00,2013-03-02 18:03:00,
2013-03-02 13:08:00,39.5,26.4,29.75,WNW,292,3.0,3.0,59,0.00,,---,0.00,VWS V14.00,2013-03-02 18:08:00,
2013-03-02 13:14:00,39.6,26.9,29.74,WNW,286,1.0,3.0,60,0.00,,---,0.00,VWS V14.00,2013-03-02 18:14:00,
2013-03-02 13:19:00,39.4,25.9,29.74,WNW,292,2.0,3.0,58,0.00,,---,0.00,VWS V14.00,2013-03-02 18:19:00,
2013-03-02 13:24:00,39.4,25.9,29.74,WNW,292,3.0,4.0,58,0.00,,---,0.00,VWS V14.00,2013-03-02 18:24:00,
2013-03-02 13:29:00,39.4,25.9,29.74,WNW,290,2.0,3.0,58,0.00,,---,0.00,VWS V14.00,2013-03-02 18:29:00,
2013-03-02 13:34:00,39.5,25.5,29.74,WNW,284,0.0,1.0,57,0.00,,---,0.00,VWS V14.00,2013-03-02 18:34:00,
2013-03-02 13:39:00,39.6,26.1,29.73,WNW,284,1.0,2.0,58,0.00,,---,0.00,VWS V14.00,2013-03-02 18:39:00,
2013-03-02 13:44:00,39.6,26.5,29.73,West,279,5.0,5.0,59,0.00,,---,0.00,VWS V14.00,2013-03-02 18:44:00,
2013-03-02 13:49:00,39.6,26.1,29.73,North,360,5.0,8.0,58,0.00,,---,0.00,VWS V14.00,2013-03-02 18:49:00,
2013-03-02 13:54:00,39.6,26.1,29.73,WNW,296,4.0,4.0,58,0.00,,---,0.00,VWS V14.00,2013-03-02 18:54:00,
2013-03-02 14:00:00,39.8,25.8,29.73,West,279,4.0,4.0,57,0.00,,---,0.00,VWS V14.00,2013-03-02 19:00:00,
2013-03-02 14:05:00,39.9,25.9,29.73,WNW,286,1.0,2.0,57,0.00,,---,0.00,VWS V14.00,2013-03-02 19:05:00,
2013-03-02 14:10:00,39.7,25.7,29.73,WNW,286,4.0,6.0,57,0.00,,---,0.00,VWS V14.00,2013-03-02 19:10:00,
2013-03-02 14:15:00,39.5,26.0,29.73,NW,310,5.0,5.0,58,0.00,,---,0.00,VWS V14.00,2013-03-02 19:15:00,
2013-03-02 14:20:00,39.4,25.9,29.73,NW,304,5.0,5.0,58,0.00,,---,0.00,VWS V14.00,2013-03-02 19:20:00,
2013-03-02 14:25:00,39.5,26.0,29.72,WNW,283,2.0,3.0,58,0.00,,---,0.00,VWS V14.00,2013-03-02 19:25:00,
2013-03-02 14:30:00,39.6,25.6,29.72,NW,304,2.0,2.0,57,0.00,,---,0.00,VWS V14.00,2013-03-02 19:30:00,
2013-03-02 14:35:00,39.6,26.1,29.72,NNW,333,5.0,7.0,58,0.00,,---,0.00,VWS V14.00,2013-03-02 19:35:00,
2013-03-02 14:40:00,39.5,26.4,29.72,West,281,2.0,4.0,59,0.00,,---,0.00,VWS V14.00,2013-03-02 19:40:00,
2013-03-02 14:45:00,39.7,26.6,29.72,NW,306,3.0,3.0,59,0.00,,---,0.00,VWS V14.00,2013-03-02 19:45:00,
2013-03-02 14:50:00,39.8,26.2,29.72,NNW,334,3.0,5.0,58,0.00,,---,0.00,VWS V14.00,2013-03-02 19:50:00,
2013-03-02 14:56:00,39.7,26.1,29.72,WNW,302,2.0,3.0,58,0.00,,---,0.00,VWS V14.00,2013-03-02 19:56:00,
2013-03-02 15:01:00,39.7,26.1,29.72,NW,304,5.0,6.0,58,0.00,,---,0.00,VWS V14.00,2013-03-02 20:01:00,
2013-03-02 15:06:00,39.7,26.6,29.72,NW,307,4.0,6.0,59,0.00,,---,0.00,VWS V14.00,2013-03-02 20:06:00,
2013-03-02 15:11:00,39.4,25.9,29.72,WNW,292,2.0,4.0,58,0.00,,---,0.00,VWS V14.00,2013-03-02 20:11:00,
2013-03-02 15:16:00,39.3,26.2,29.72,WNW,300,5.0,6.0,59,0.00,,---,0.00,VWS V14.00,2013-03-02 20:16:00,
2013-03-02 15:21:00,39.2,26.1,29.72,WNW,299,1.0,3.0,59,0.00,,---,0.00,VWS V14.00,2013-03-02 20:21:00,
2013-03-02 15:26:00,39.3,26.6,29.72,WNW,287,6.0,7.0,60,0.00,,---,0.00,VWS V14.00,2013-03-02 20:26:00,
2013-03-02 15:31:00,39.2,26.1,29.72,West,280,2.0,4.0,59,0.00,,---,0.00,VWS V14.00,2013-03-02 20:31:00,
2013-03-02 15:36:00,39.1,26.0,29.72,WNW,294,3.0,4.0,59,0.00,,---,0.00,VWS V14.00,2013-03-02 20:36:00,
2013-03-02 15:41:00,39.0,26.3,29.72,NW,308,4.0,4.0,60,0.00,,---,0.00,VWS V14.00,2013-03-02 20:41:00,
2013-03-02 15:47:00,38.9,26.2,29.72,NNW,339,5.0,5.0,60,0.00,,---,0.00,VWS V14.00,2013-03-02 20:47:00,
2013-03-02 15:52:00,38.9,26.2,29.72,WNW,297,3.0,5.0,60,0.00,,---,0.00,VWS V14.00,2013-03-02 20:52:00,
2013-03-02 15:57:00,38.8,26.1,29.72,NW,308,3.0,3.0,60,0.00,,---,0.00,VWS V14.00,2013-03-02 20:57:00,
2013-03-02 16:02:00,38.6,25.9,29.73,NW,310,3.0,3.0,60,0.00,,---,0.00,VWS V14.00,2013-03-02 21:02:00,
2013-03-02 16:07:00,38.4,25.7,29.73,WNW,284,3.0,3.0,60,0.00,,---,0.00,VWS V14.00,2013-03-02 21:07:00,
2013-03-02 16:12:00,38.4,26.1,29.73,NW,325,3.0,4.0,61,0.00,,---,0.00,VWS V14.00,2013-03-02 21:12:00,
2013-03-02 16:17:00,38.3,25.6,29.73,NNW,344,4.0,4.0,60,0.00,,---,0.00,VWS V14.00,2013-03-02 21:17:00,
2013-03-02 16:22:00,38.3,25.6,29.73,WNW,297,2.0,4.0,60,0.00,,---,0.00,VWS V14.00,2013-03-02 21:22:00,
2013-03-02 16:27:00,38.3,26.0,29.73,NNW,333,2.0,3.0,61,0.00,,---,0.00,VWS V14.00,2013-03-02 21:27:00,
2013-03-02 16:32:00,38.3,25.6,29.73,NW,325,4.0,4.0,60,0.00,,---,0.00,VWS V14.00,2013-03-02 21:32:00,
2013-03-02 16:37:00,38.2,25.5,29.73,NW,316,4.0,7.0,60,0.00,,---,0.00,VWS V14.00,2013-03-02 21:37:00,
2013-03-02 16:42:00,38.1,25.5,29.73,NW,308,5.0,7.0,60,0.00,,---,0.00,VWS V14.00,2013-03-02 21:42:00,
2013-03-02 16:47:00,38.1,25.5,29.73,NW,307,4.0,5.0,60,0.00,,---,0.00,VWS V14.00,2013-03-02 21:47:00,
2013-03-02 16:53:00,38.0,25.4,29.73,WNW,288,5.0,6.0,60,0.00,,---,0.00,VWS V14.00,2013-03-02 21:53:00,
2013-03-02 16:58:00,38.0,25.8,29.73,NNW,329,4.0,6.0,61,0.00,,---,0.00,VWS V14.00,2013-03-02 21:58:00,
2013-03-02 17:03:00,37.8,25.6,29.73,NW,305,3.0,3.0,61,0.00,,---,0.00,VWS V14.00,2013-03-02 22:03:00,
2013-03-02 17:08:00,37.7,25.5,29.73,NW,309,4.0,4.0,61,0.00,,---,0.00,VWS V14.00,2013-03-02 22:08:00,
2013-03-02 17:13:00,37.6,25.4,29.73,WNW,285,4.0,4.0,61,0.00,,---,0.00,VWS V14.00,2013-03-02 22:13:00,
2013-03-02 17:18:00,37.5,25.7,29.73,WNW,290,3.0,3.0,62,0.00,,---,0.00,VWS V14.00,2013-03-02 22:18:00,
2013-03-02 17:23:00,37.5,25.7,29.73,WNW,294,2.0,3.0,62,0.00,,---,0.00,VWS V14.00,2013-03-02 22:23:00,
2013-03-02 17:28:00,37.4,25.6,29.74,NW,321,1.0,3.0,62,0.00,,---,0.00,VWS V14.00,2013-03-02 22:28:00,
2013-03-02 17:33:00,37.3,25.9,29.74,WNW,285,2.0,3.0,63,0.00,,---,0.00,VWS V14.00,2013-03-02 22:33:00,
2013-03-02 17:38:00,37.2,25.8,29.74,NW,309,8.0,8.0,63,0.00,,---,0.00,VWS V14.00,2013-03-02 22:38:00,
2013-03-02 17:43:00,37.1,25.7,29.74,NNW,327,1.0,3.0,63,0.00,,---,0.00,VWS V14.00,2013-03-02 22:43:00,
2013-03-02 17:48:00,37.0,25.6,29.74,NNW,348,1.0,3.0,63,0.00,,---,0.00,VWS V14.00,2013-03-02 22:48:00,
2013-03-02 17:54:00,36.9,25.9,29.74,WNW,300,4.0,5.0,64,0.00,,---,0.00,VWS V14.00,2013-03-02 22:54:00,
2013-03-02 17:59:00,36.8,25.8,29.75,NW,323,3.0,3.0,64,0.00,,---,0.00,VWS V14.00,2013-03-02 22:59:00,
2013-03-02 18:04:00,36.7,25.7,29.75,NW,312,2.0,2.0,64,0.00,,---,0.00,VWS V14.00,2013-03-02 23:04:00,
2013-03-02 18:09:00,36.6,25.6,29.75,NW,317,2.0,3.0,64,0.00,,---,0.00,VWS V14.00,2013-03-02 23:09:00,
2013-03-02 18:14:00,36.5,25.9,29.75,NNW,331,1.0,1.0,65,0.00,,---,0.00,VWS V14.00,2013-03-02 23:14:00,
2013-03-02 18:19:00,36.3,25.3,29.76,WNW,296,3.0,4.0,64,0.00,,---,0.00,VWS V14.00,2013-03-02 23:19:00,
2013-03-02 18:24:00,36.2,25.6,29.76,NW,313,2.0,2.0,65,0.00,,---,0.00,VWS V14.00,2013-03-02 23:24:00,
2013-03-02 18:29:00,36.2,25.6,29.76,NW,312,1.0,3.0,65,0.00,,---,0.00,VWS V14.00,2013-03-02 23:29:00,
2013-03-02 18:34:00,36.1,25.5,29.76,WNW,301,2.0,3.0,65,0.00,,---,0.00,VWS V14.00,2013-03-02 23:34:00,
2013-03-02 18:39:00,36.1,25.1,29.76,NW,325,2.0,3.0,64,0.00,,---,0.00,VWS V14.00,2013-03-02 23:39:00,
2013-03-02 18:44:00,36.0,25.0,29.76,NW,307,1.0,1.0,64,0.00,,---,0.00,VWS V14.00,2013-03-02 23:44:00,
2013-03-02 18:49:00,36.0,25.0,29.76,WNW,298,3.0,4.0,64,0.00,,---,0.00,VWS V14.00,2013-03-02 23:49:00,
2013-03-02 18:54:00,35.9,25.3,29.76,WNW,303,2.0,2.0,65,0.00,,---,0.00,VWS V14.00,2013-03-02 23:54:00,
2013-03-02 18:59:00,35.9,24.9,29.76,NW,315,3.0,4.0,64,0.00,,---,0.00,VWS V14.00,2013-03-02 23:59:00,
2013-03-02 19:04:00,35.9,25.3,29.76,WNW,295,1.0,1.0,65,0.00,,---,0.00,VWS V14.00,2013-03-03 00:04:00,
2013-03-02 19:10:00,35.8,25.2,29.76,NW,306,3.0,3.0,65,0.00,,---,0.00,VWS V14.00,2013-03-03 00:10:00,
2013-03-02 19:15:00,35.7,24.7,29.76,WNW,286,3.0,4.0,64,0.00,,---,0.00,VWS V14.00,2013-03-03 00:15:00,
2013-03-02 19:20:00,35.7,24.7,29.76,WNW,302,1.0,1.0,64,0.00,,---,0.00,VWS V14.00,2013-03-03 00:20:00,
2013-03-02 19:25:00,35.6,25.0,29.76,WNW,294,2.0,5.0,65,0.00,,---,0.00,VWS V14.00,2013-03-03 00:25:00,
2013-03-02 19:30:00,35.5,24.9,29.76,WNW,296,1.0,2.0,65,0.00,,---,0.00,VWS V14.00,2013-03-03 00:30:00,
2013-03-02 19:35:00,35.5,24.9,29.76,WNW,302,3.0,3.0,65,0.00,,---,0.00,VWS V14.00,2013-03-03 00:35:00,
2013-03-02 19:40:00,35.4,24.8,29.76,NW,307,2.0,3.0,65,0.00,,---,0.00,VWS V14.00,2013-03-03 00:40:00,
2013-03-02 19:45:00,35.3,24.7,29.76,NW,325,3.0,4.0,65,0.00,,---,0.00,VWS V14.00,2013-03-03 00:45:00,
2013-03-02 19:50:00,35.3,24.7,29.76,NW,314,0.0,2.0,65,0.00,,---,0.00,VWS V14.00,2013-03-03 00:50:00,
2013-03-02 19:55:00,35.2,25.0,29.76,NW,313,1.0,3.0,66,0.00,,---,0.00,VWS V14.00,2013-03-03 00:55:00,
2013-03-02 20:00:00,35.1,24.9,29.76,WNW,288,4.0,4.0,66,0.00,,---,0.00,VWS V14.00,2013-03-03 01:00:00,
2013-03-02 20:05:00,35.1,24.9,29.76,WNW,298,2.0,4.0,66,0.00,,---,0.00,VWS V14.00,2013-03-03 01:05:00,
2013-03-02 20:11:00,35.0,24.8,29.76,NW,321,1.0,2.0,66,0.00,,---,0.00,VWS V14.00,2013-03-03 01:11:00,
2013-03-02 20:16:00,35.0,24.8,29.76,NW,323,2.0,3.0,66,0.00,,---,0.00,VWS V14.00,2013-03-03 01:16:00,
2013-03-02 20:21:00,34.9,24.7,29.76,NW,323,2.0,2.0,66,0.00,,---,0.00,VWS V14.00,2013-03-03 01:21:00,
2013-03-02 20:26:00,34.9,24.7,29.76,WNW,290,2.0,3.0,66,0.00,,---,0.00,VWS V14.00,2013-03-03 01:26:00,
2013-03-02 20:31:00,34.8,24.2,29.76,NW,313,3.0,3.0,65,0.00,,---,0.00,VWS V14.00,2013-03-03 01:31:00,
2013-03-02 20:36:00,34.7,24.1,29.76,NW,313,2.0,3.0,65,0.00,,---,0.00,VWS V14.00,2013-03-03 01:36:00,
2013-03-02 20:41:00,34.6,24.1,29.76,NNW,337,4.0,8.0,65,0.00,,---,0.00,VWS V14.00,2013-03-03 01:41:00,
2013-03-02 20:46:00,34.5,24.3,29.76,WNW,302,3.0,4.0,66,0.00,,---,0.00,VWS V14.00,2013-03-03 01:46:00,
2013-03-02 20:51:00,34.4,24.2,29.77,NNW,331,2.0,2.0,66,0.00,,---,0.00,VWS V14.00,2013-03-03 01:51:00,
2013-03-02 20:56:00,34.3,24.1,29.77,NNW,331,3.0,3.0,66,0.00,,---,0.00,VWS V14.00,2013-03-03 01:56:00,
2013-03-02 21:01:00,34.2,24.0,29.77,NW,313,3.0,6.0,66,0.00,,---,0.00,VWS V14.00,2013-03-03 02:01:00,
2013-03-02 21:06:00,34.1,24.0,29.77,North,349,5.0,5.0,66,0.00,,---,0.00,VWS V14.00,2013-03-03 02:06:00,
2013-03-02 21:11:00,34.0,23.9,29.77,NNW,331,2.0,2.0,66,0.00,,---,0.00,VWS V14.00,2013-03-03 02:11:00,
2013-03-02 21:16:00,33.9,24.1,29.77,North,355,3.0,3.0,67,0.00,,---,0.00,VWS V14.00,2013-03-03 02:16:00,
2013-03-02 21:22:00,33.9,24.1,29.77,NW,315,3.0,4.0,67,0.00,,---,0.00,VWS V14.00,2013-03-03 02:22:00,
2013-03-02 21:27:00,33.8,25.7,29.77,North,10,2.0,4.0,72,0.00,,---,0.00,VWS V14.00,2013-03-03 02:27:00,
2013-03-02 21:32:00,33.7,24.3,29.77,NNW,338,2.0,2.0,68,0.00,,---,0.00,VWS V14.00,2013-03-03 02:32:00,
2013-03-02 21:37:00,33.5,24.1,29.77,NNW,334,2.0,3.0,68,0.00,,---,0.00,VWS V14.00,2013-03-03 02:37:00,
2013-03-02 21:42:00,33.4,24.3,29.77,North,349,0.0,1.0,69,0.00,,---,0.00,VWS V14.00,2013-03-03 02:42:00,
2013-03-02 21:47:00,33.3,24.2,29.77,NW,305,0.0,1.0,69,0.00,,---,0.00,VWS V14.00,2013-03-03 02:47:00,
2013-03-02 21:52:00,33.2,24.1,29.77,NNW,344,4.0,4.0,69,0.00,,---,0.00,VWS V14.00,2013-03-03 02:52:00,
2013-03-02 21:57:00,33.2,24.5,29.77,NNW,340,3.0,4.0,70,0.00,,---,0.00,VWS V14.00,2013-03-03 02:57:00,
2013-03-02 22:03:00,33.0,24.3,29.76,North,360,3.0,4.0,70,0.00,,---,0.00,VWS V14.00,2013-03-03 03:03:00,
2013-03-02 22:08:00,32.9,24.9,29.77,NNW,330,3.0,5.0,72,0.00,,---,0.00,VWS V14.00,2013-03-03 03:08:00,
2013-03-02 22:13:00,32.8,24.8,29.77,North,355,1.0,2.0,72,0.00,,---,0.00,VWS V14.00,2013-03-03 03:13:00,
2013-03-02 22:18:00,32.6,24.6,29.77,NW,313,2.0,4.0,72,0.00,,---,0.00,VWS V14.00,2013-03-03 03:18:00,
2013-03-02 22:23:00,32.5,24.8,29.77,North,355,3.0,4.0,73,0.00,,---,0.00,VWS V14.00,2013-03-03 03:23:00,
2013-03-02 22:28:00,32.4,24.7,29.76,NW,319,2.0,4.0,73,0.00,,---,0.00,VWS V14.00,2013-03-03 03:28:00,
2013-03-02 22:33:00,32.2,24.5,29.76,NW,318,3.0,3.0,73,0.00,,---,0.00,VWS V14.00,2013-03-03 03:33:00,
2013-03-02 22:38:00,32.0,24.3,29.76,WNW,284,2.0,2.0,73,0.00,,---,0.00,VWS V14.00,2013-03-03 03:38:00,
2013-03-02 22:43:00,31.9,24.6,29.76,NW,320,2.0,2.0,74,0.00,,---,0.00,VWS V14.00,2013-03-03 03:43:00,
2013-03-02 22:48:00,31.8,24.5,29.76,WNW,298,5.0,6.0,74,0.00,,---,0.00,VWS V14.00,2013-03-03 03:48:00,
2013-03-02 22:54:00,31.7,24.4,29.76,NW,316,2.0,2.0,74,0.00,,---,0.00,VWS V14.00,2013-03-03 03:54:00,
2013-03-02 22:59:00,31.6,24.6,29.76,NW,313,0.0,0.0,75,0.00,,---,0.00,VWS V14.00,2013-03-03 03:59:00,
2013-03-02 23:04:00,31.4,24.4,29.76,WNW,288,5.0,6.0,75,0.00,,---,0.00,VWS V14.00,2013-03-03 04:04:00,
2013-03-02 23:09:00,31.2,24.2,29.76,WNW,301,3.0,4.0,75,0.00,,---,0.00,VWS V14.00,2013-03-03 04:09:00,
2013-03-02 23:14:00,31.1,24.1,29.76,NW,325,3.0,4.0,75,0.00,,---,0.00,VWS V14.00,2013-03-03 04:14:00,
2013-03-02 23:19:00,31.0,24.0,29.76,NW,308,2.0,5.0,75,0.00,,---,0.00,VWS V14.00,2013-03-03 04:19:00,
2013-03-02 23:24:00,31.0,24.0,29.76,WNW,295,3.0,3.0,75,0.00,,---,0.00,VWS V14.00,2013-03-03 04:24:00,
2013-03-02 23:29:00,30.9,23.9,29.76,NW,311,2.0,2.0,75,0.00,,---,0.00,VWS V14.00,2013-03-03 04:29:00,
2013-03-02 23:34:00,30.7,24.0,29.76,NW,316,2.0,3.0,76,0.00,,---,0.00,VWS V14.00,2013-03-03 04:34:00,
2013-03-02 23:39:00,30.6,24.0,29.76,NW,317,1.0,2.0,76,0.00,,---,0.00,VWS V14.00,2013-03-03 04:39:00,
2013-03-02 23:44:00,30.5,23.9,29.76,WNW,291,3.0,3.0,76,0.00,,---,0.00,VWS V14.00,2013-03-03 04:44:00,
2013-03-02 23:49:00,30.5,24.2,29.76,NW,309,3.0,5.0,77,0.00,,---,0.00,VWS V14.00,2013-03-03 04:49:00,
2013-03-02 23:54:00,30.4,24.1,29.76,NW,324,3.0,5.0,77,0.00,,---,0.00,VWS V14.00,2013-03-03 04:54:00,
2013-03-02 23:59:00,30.4,23.8,29.76,WNW,292,2.0,4.0,76,0.00,,---,0.00,VWS V14.00,2013-03-03 04:59:00,